Tracking 23581 objects as of 27-Jul-2021
HD Live streaming from Space Station
objects crossing your sky now

COSMOS 2491 DEB

Track COSMOS 2491 DEB now!
10-day predictions


NORAD ID: 45128
Int'l Code: 2013-076Z
Perigee: 811.5 km
Apogee: 851.4 km
Inclination: 81.2 °
Period: 101.4 minutes
Semi major axis: 7202 km
RCS: Unknown
Launch date: December 25, 2013
Source: Commonwealth of Independent States (former USSR) (CIS)
Launch site: PLESETSK MISSILE AND SPACE COMPLEX (PKMTR)

Note: This is SATELLITE DEBRIS
aabbcc
Your satellite tracking list
Your tracking list is empty




NASA's NSSDC Master Catalog

Two Line Element Set (TLE):
1 45128U 13076AA  21206.13009787 -.00000018  00000-0 -14366-4 0  9998
2 45128  81.2174   2.1510 0027732  58.5101 301.8780 14.20308493 77190
Source of the keplerian elements: AFSPC